User: anonymous   Login
Location: Heathcote
(40.9845°N, 73.7746°W)
Time: 01:21:48
(UTC+00:00)
Language:

Cosmos 2278 - Orbit

View from above orbital plane
View from above orbital plane
View from above satellite
View from above satellite

Ground track
Ground track

The orbit data is extracted from the following two-line orbital elements,

1 23087U 94023A   21021.73022632 -.00000291  00000-0 -12870-3 0  9994
2 23087  71.0550 131.4170 0009149 350.4819   9.6129 14.13821856380298
Epoch (UTC): 21 January 2021 17:31:31
Eccentricity: 0.0009149
inclination: 71.0550°
perigee height: 840 km
apogee height: 853 km
right ascension of ascending node: 131.4170°
argument of perigee: 350.4819°
revolutions per day: 14.13821856
mean anomaly at epoch: 9.6129°
orbit number at epoch: 38029

The dashed part of the orbit path shows where the satellite is in the earth's shadow,  

DLR